Time,TemperatureF,DewpointF,PressureIn,WindDirection,WindDirectionDegrees,WindSpeedMPH,WindSpeedGustMPH,Humidity,HourlyPrecipIn,Conditions,Clouds,dailyrainin,SoftwareType,DateUTC
2013-05-25 00:01:00,44.5,42.0,30.01,WNW,298,5.0,9.0,91,0.00,,-RA,0.00,VWS V14.01,2013-05-25 04:01:00,
2013-05-25 00:06:00,44.3,42.1,30.01,NW,317,4.0,11.0,92,0.00,,-RA,0.00,VWS V14.01,2013-05-25 04:06:00,
2013-05-25 00:11:00,44.2,42.0,30.01,NW,325,8.0,12.0,92,0.00,,-RA,0.00,VWS V14.01,2013-05-25 04:11:00,
2013-05-25 00:16:00,44.1,41.9,30.00,West,273,4.0,12.0,92,0.00,,-RA,0.00,VWS V14.01,2013-05-25 04:16:00,
2013-05-25 00:21:00,44.0,41.8,30.01,NNW,332,4.0,12.0,92,0.00,,-RA,0.00,VWS V14.01,2013-05-25 04:21:00,
2013-05-25 00:26:00,43.9,42.0,30.00,West,278,4.0,12.0,93,0.00,,-RA,0.00,VWS V14.01,2013-05-25 04:26:00,
2013-05-25 00:31:00,43.9,42.0,30.00,WNW,291,6.0,8.0,93,0.00,,-RA,0.00,VWS V14.01,2013-05-25 04:31:00,
2013-05-25 00:36:00,43.9,42.0,30.00,NNW,328,5.0,10.0,93,0.00,,-RA,0.00,VWS V14.01,2013-05-25 04:36:00,
2013-05-25 00:41:00,43.9,42.0,30.00,NW,305,4.0,10.0,93,0.00,,-RA,0.00,VWS V14.01,2013-05-25 04:41:00,
2013-05-25 00:46:00,43.8,41.9,30.00,WSW,244,3.0,14.0,93,0.00,,-RA,0.00,VWS V14.01,2013-05-25 04:46:00,
2013-05-25 00:51:00,43.8,41.9,30.00,NW,320,4.0,14.0,93,0.00,,-RA,0.00,VWS V14.01,2013-05-25 04:51:00,
2013-05-25 00:56:00,43.8,42.2,30.00,West,269,4.0,14.0,94,0.00,,-RA,0.00,VWS V14.01,2013-05-25 04:56:00,
2013-05-25 01:01:00,43.8,41.9,30.00,NNW,330,5.0,9.0,93,0.00,,-RA,0.00,VWS V14.01,2013-05-25 05:01:00,
2013-05-25 01:06:00,43.8,41.9,30.00,NW,325,6.0,10.0,93,0.00,,-RA,0.00,VWS V14.01,2013-05-25 05:06:00,
2013-05-25 01:12:00,43.7,41.8,30.00,NNW,329,5.0,12.0,93,0.00,,-RA,0.00,VWS V14.01,2013-05-25 05:12:00,
2013-05-25 01:17:00,43.7,41.8,30.00,NW,306,7.0,12.0,93,0.00,,-RA,0.00,VWS V14.01,2013-05-25 05:17:00,
2013-05-25 01:22:00,43.7,41.8,30.00,WSW,254,8.0,12.0,93,0.00,,-RA,0.00,VWS V14.01,2013-05-25 05:22:00,
2013-05-25 01:27:00,43.7,41.8,29.99,WNW,303,3.0,12.0,93,0.00,,-RA,0.00,VWS V14.01,2013-05-25 05:27:00,
2013-05-25 01:32:00,43.7,41.8,29.99,WSW,255,8.0,15.0,93,0.00,,-RA,0.00,VWS V14.01,2013-05-25 05:32:00,
2013-05-25 01:37:00,43.7,41.8,29.99,NW,313,2.0,15.0,93,0.00,,-RA,0.00,VWS V14.01,2013-05-25 05:37:00,
2013-05-25 01:42:00,43.7,41.8,29.99,West,267,4.0,15.0,93,0.00,,-RA,0.00,VWS V14.01,2013-05-25 05:42:00,
2013-05-25 01:47:00,43.5,41.6,29.99,WNW,285,8.0,15.0,93,0.00,,-RA,0.00,VWS V14.01,2013-05-25 05:47:00,
2013-05-25 01:52:00,43.4,41.2,29.99,NW,304,7.0,15.0,92,0.00,,-RA,0.00,VWS V14.01,2013-05-25 05:52:00,
2013-05-25 01:57:00,43.4,41.2,29.98,North,355,13.0,15.0,92,0.00,,-RA,0.00,VWS V14.01,2013-05-25 05:57:00,
2013-05-25 02:02:00,43.3,41.1,29.98,WNW,286,8.0,11.0,92,0.00,,-RA,0.00,VWS V14.01,2013-05-25 06:02:00,
2013-05-25 02:07:00,43.3,41.1,29.98,West,281,8.0,11.0,92,0.00,,-RA,0.00,VWS V14.01,2013-05-25 06:07:00,
2013-05-25 02:12:00,43.3,41.1,29.98,WNW,291,2.0,11.0,92,0.00,,-RA,0.00,VWS V14.01,2013-05-25 06:12:00,
2013-05-25 02:17:00,43.2,41.0,29.98,WNW,300,5.0,11.0,92,0.00,,-RA,0.00,VWS V14.01,2013-05-25 06:17:00,
2013-05-25 02:22:00,43.2,41.0,29.98,WNW,299,4.0,12.0,92,0.00,,-RA,0.00,VWS V14.01,2013-05-25 06:22:00,
2013-05-25 02:27:00,43.2,41.0,29.98,NW,323,7.0,17.0,92,0.00,,-RA,0.00,VWS V14.01,2013-05-25 06:27:00,
2013-05-25 02:32:00,43.3,41.1,29.98,WNW,298,5.0,8.0,92,0.00,,-RA,0.00,VWS V14.01,2013-05-25 06:32:00,
2013-05-25 02:37:00,43.3,41.1,29.97,West,276,3.0,9.0,92,0.00,,-RA,0.00,VWS V14.01,2013-05-25 06:37:00,
2013-05-25 02:42:00,43.4,41.5,29.97,NW,318,5.0,11.0,93,0.00,,-RA,0.00,VWS V14.01,2013-05-25 06:42:00,
2013-05-25 02:47:00,43.4,41.5,29.97,NE,39,2.0,11.0,93,0.00,,-RA,0.00,VWS V14.01,2013-05-25 06:47:00,
2013-05-25 02:52:00,43.5,41.6,29.97,NW,313,7.0,11.0,93,0.00,,-RA,0.00,VWS V14.01,2013-05-25 06:52:00,
2013-05-25 02:57:00,43.6,41.7,29.97,NW,312,8.0,11.0,93,0.00,,-RA,0.00,VWS V14.01,2013-05-25 06:57:00,
2013-05-25 03:02:00,43.6,41.7,29.97,NNW,339,5.0,10.0,93,0.00,,-RA,0.00,VWS V14.01,2013-05-25 07:02:00,
2013-05-25 03:07:00,43.7,41.8,29.97,WNW,288,4.0,10.0,93,0.00,,-RA,0.00,VWS V14.01,2013-05-25 07:07:00,
2013-05-25 03:12:00,43.7,41.8,29.97,NW,315,5.0,10.0,93,0.00,,-RA,0.00,VWS V14.01,2013-05-25 07:12:00,
2013-05-25 03:17:00,43.8,41.9,29.97,West,277,1.0,10.0,93,0.00,,-RA,0.00,VWS V14.01,2013-05-25 07:17:00,
2013-05-25 03:22:00,43.8,41.9,29.97,WNW,291,3.0,10.0,93,0.00,,-RA,0.00,VWS V14.01,2013-05-25 07:22:00,
2013-05-25 03:27:00,43.9,42.3,29.97,WNW,298,4.0,10.0,94,0.00,,-RA,0.00,VWS V14.01,2013-05-25 07:27:00,
2013-05-25 03:32:00,43.9,42.3,29.97,WNW,288,3.0,6.0,94,0.00,,-RA,0.00,VWS V14.01,2013-05-25 07:32:00,
2013-05-25 03:37:00,43.9,42.3,29.97,NW,319,4.0,9.0,94,0.00,,-RA,0.00,VWS V14.01,2013-05-25 07:37:00,
2013-05-25 03:42:00,44.0,42.4,29.97,NNW,341,4.0,9.0,94,0.00,,-RA,0.00,VWS V14.01,2013-05-25 07:42:00,
2013-05-25 03:47:00,44.0,42.4,29.97,NW,310,3.0,9.0,94,0.00,,-RA,0.00,VWS V14.01,2013-05-25 07:47:00,
2013-05-25 03:52:00,44.1,42.5,29.97,WNW,288,1.0,9.0,94,0.00,,-RA,0.00,VWS V14.01,2013-05-25 07:52:00,
2013-05-25 03:57:00,44.1,42.5,29.97,WNW,302,5.0,9.0,94,0.00,,-RA,0.00,VWS V14.01,2013-05-25 07:57:00,
2013-05-25 04:02:00,44.1,42.5,29.97,West,273,3.0,5.0,94,0.00,,-RA,0.00,VWS V14.01,2013-05-25 08:02:00,
2013-05-25 04:07:00,44.1,42.5,29.97,West,281,7.0,7.0,94,0.00,,-RA,0.00,VWS V14.01,2013-05-25 08:07:00,
2013-05-25 04:12:00,44.2,42.6,29.97,NW,304,3.0,7.0,94,0.00,,-RA,0.00,VWS V14.01,2013-05-25 08:12:00,
2013-05-25 04:17:00,44.2,42.6,29.96,WNW,300,2.0,7.0,94,0.00,,-RA,0.00,VWS V14.01,2013-05-25 08:17:00,
2013-05-25 04:22:00,44.2,42.6,29.97,West,277,2.0,7.0,94,0.00,,-RA,0.00,VWS V14.01,2013-05-25 08:22:00,
2013-05-25 04:27:00,44.3,42.7,29.97,WNW,296,5.0,7.0,94,0.00,,-RA,0.00,VWS V14.01,2013-05-25 08:27:00,
2013-05-25 04:32:00,44.2,42.6,29.97,West,279,3.0,5.0,94,0.00,,-RA,0.00,VWS V14.01,2013-05-25 08:32:00,
2013-05-25 04:37:00,44.3,42.7,29.97,NW,321,0.0,5.0,94,0.00,,-RA,0.00,VWS V14.01,2013-05-25 08:37:00,
2013-05-25 04:42:00,44.3,42.7,29.97,North,355,4.0,6.0,94,0.00,,-RA,0.00,VWS V14.01,2013-05-25 08:42:00,
2013-05-25 04:47:00,44.3,42.7,29.97,WNW,298,5.0,7.0,94,0.00,,-RA,0.00,VWS V14.01,2013-05-25 08:47:00,
2013-05-25 04:52:00,44.3,42.7,29.97,NW,307,2.0,7.0,94,0.00,,-RA,0.00,VWS V14.01,2013-05-25 08:52:00,
2013-05-25 04:57:00,44.4,42.8,29.97,NNW,330,5.0,10.0,94,0.00,,-RA,0.00,VWS V14.01,2013-05-25 08:57:00,
2013-05-25 05:03:00,44.4,42.8,29.97,WNW,298,6.0,9.0,94,0.00,,-RA,0.00,VWS V14.01,2013-05-25 09:03:00,
2013-05-25 05:08:00,44.5,42.9,29.97,NW,311,2.0,10.0,94,0.00,,-RA,0.00,VWS V14.01,2013-05-25 09:08:00,
2013-05-25 05:13:00,44.5,42.9,29.96,NW,310,2.0,10.0,94,0.00,,-RA,0.00,VWS V14.01,2013-05-25 09:13:00,
2013-05-25 05:18:00,44.5,42.9,29.96,WSW,254,1.0,10.0,94,0.00,,-RA,0.00,VWS V14.01,2013-05-25 09:18:00,
2013-05-25 05:23:00,44.5,42.9,29.97,WNW,300,3.0,10.0,94,0.00,,-RA,0.00,VWS V14.01,2013-05-25 09:23:00,
2013-05-25 05:28:00,44.5,42.9,29.96,NW,326,3.0,10.0,94,0.00,,-RA,0.00,VWS V14.01,2013-05-25 09:28:00,
2013-05-25 05:33:00,44.5,42.9,29.96,West,262,2.0,3.0,94,0.00,,OVC048,0.00,VWS V14.01,2013-05-25 09:33:00,
2013-05-25 05:38:00,44.5,42.9,29.96,West,277,2.0,6.0,94,0.00,,OVC048,0.00,VWS V14.01,2013-05-25 09:38:00,
2013-05-25 05:43:00,44.5,42.9,29.97,NW,315,3.0,7.0,94,0.00,,OVC048,0.00,VWS V14.01,2013-05-25 09:43:00,
2013-05-25 05:48:00,44.6,43.0,29.97,NW,307,2.0,7.0,94,0.00,,OVC048,0.00,VWS V14.01,2013-05-25 09:48:00,
2013-05-25 05:53:00,44.6,43.0,29.97,NW,316,3.0,7.0,94,0.00,,OVC048,0.00,VWS V14.01,2013-05-25 09:53:00,
2013-05-25 05:58:00,44.6,43.0,29.97,NW,307,2.0,8.0,94,0.00,,OVC048,0.00,VWS V14.01,2013-05-25 09:58:00,
2013-05-25 06:03:00,44.6,43.0,29.97,WNW,299,9.0,9.0,94,0.00,,-RA,0.00,VWS V14.01,2013-05-25 10:03:00,
2013-05-25 06:08:00,44.6,43.0,29.97,NW,310,3.0,12.0,94,0.00,,-RA,0.00,VWS V14.01,2013-05-25 10:08:00,
2013-05-25 06:13:00,44.7,42.8,29.97,West,274,5.0,12.0,93,0.00,,-RA,0.00,VWS V14.01,2013-05-25 10:13:00,
2013-05-25 06:18:00,44.7,42.8,29.97,North,355,4.0,12.0,93,0.00,,-RA,0.00,VWS V14.01,2013-05-25 10:18:00,
2013-05-25 06:23:00,44.7,42.8,29.97,WSW,252,2.0,12.0,93,0.00,,-RA,0.00,VWS V14.01,2013-05-25 10:23:00,
2013-05-25 06:28:00,44.7,42.8,29.97,NNW,328,3.0,12.0,93,0.00,,-RA,0.00,VWS V14.01,2013-05-25 10:28:00,
2013-05-25 06:33:00,44.7,42.8,29.98,WNW,292,2.0,8.0,93,0.00,,-RA,0.00,VWS V14.01,2013-05-25 10:33:00,
2013-05-25 06:38:00,44.7,42.8,29.98,NW,313,4.0,9.0,93,0.00,,-RA,0.00,VWS V14.01,2013-05-25 10:38:00,
2013-05-25 06:43:00,44.7,42.8,29.98,WNW,299,4.0,10.0,93,0.00,,-RA,0.00,VWS V14.01,2013-05-25 10:43:00,
2013-05-25 06:48:00,44.8,42.9,29.98,NW,322,4.0,10.0,93,0.00,,-RA,0.00,VWS V14.01,2013-05-25 10:48:00,
2013-05-25 06:53:00,44.8,42.9,29.98,West,267,4.0,10.0,93,0.00,,-RA,0.00,VWS V14.01,2013-05-25 10:53:00,
2013-05-25 06:58:00,44.8,42.6,29.98,WSW,248,3.0,10.0,92,0.00,,-RA,0.00,VWS V14.01,2013-05-25 10:58:00,
2013-05-25 07:03:00,44.7,42.5,29.98,WNW,288,3.0,8.0,92,0.00,,OVC090,0.00,VWS V14.01,2013-05-25 11:03:00,
2013-05-25 07:08:00,44.7,42.5,29.98,West,281,4.0,11.0,92,0.00,,OVC090,0.00,VWS V14.01,2013-05-25 11:08:00,
2013-05-25 07:13:00,44.7,42.5,29.98,NW,316,4.0,11.0,92,0.00,,OVC090,0.00,VWS V14.01,2013-05-25 11:13:00,
2013-05-25 07:18:00,44.8,42.9,29.98,NW,314,3.0,11.0,93,0.00,,OVC090,0.00,VWS V14.01,2013-05-25 11:18:00,
2013-05-25 07:23:00,44.8,42.9,29.98,WSW,257,7.0,11.0,93,0.00,,OVC090,0.00,VWS V14.01,2013-05-25 11:23:00,
2013-05-25 07:28:00,44.9,42.7,29.98,NNW,343,4.0,11.0,92,0.00,,OVC090,0.00,VWS V14.01,2013-05-25 11:28:00,
2013-05-25 07:33:00,45.0,42.8,29.98,West,274,6.0,8.0,92,0.00,,OVC090,0.00,VWS V14.01,2013-05-25 11:33:00,
2013-05-25 07:38:00,45.2,43.0,29.98,NNW,328,5.0,10.0,92,0.00,,OVC090,0.00,VWS V14.01,2013-05-25 11:38:00,
2013-05-25 07:43:00,45.5,43.6,29.98,NNW,327,5.0,10.0,93,0.00,,OVC090,0.00,VWS V14.01,2013-05-25 11:43:00,
2013-05-25 07:48:00,45.8,43.6,29.98,WNW,303,8.0,10.0,92,0.00,,OVC090,0.00,VWS V14.01,2013-05-25 11:48:00,
2013-05-25 07:53:00,46.1,43.6,29.98,West,267,1.0,10.0,91,0.00,,OVC090,0.00,VWS V14.01,2013-05-25 11:53:00,
2013-05-25 07:58:00,46.4,43.6,29.98,NW,311,2.0,10.0,90,0.00,,OVC090,0.00,VWS V14.01,2013-05-25 11:58:00,
2013-05-25 08:03:00,46.6,43.8,29.98,WNW,298,2.0,10.0,90,0.00,,OVC090,0.00,VWS V14.01,2013-05-25 12:03:00,
2013-05-25 08:08:00,46.7,43.6,29.98,WSW,244,4.0,12.0,89,0.00,,OVC090,0.00,VWS V14.01,2013-05-25 12:08:00,
2013-05-25 08:13:00,46.9,44.1,29.98,NW,319,8.0,12.0,90,0.00,,OVC090,0.00,VWS V14.01,2013-05-25 12:13:00,
2013-05-25 08:18:00,47.2,44.1,29.98,NW,321,6.0,12.0,89,0.00,,OVC090,0.00,VWS V14.01,2013-05-25 12:18:00,
2013-05-25 08:24:00,47.4,44.3,29.98,WNW,301,2.0,12.0,89,0.00,,OVC090,0.00,VWS V14.01,2013-05-25 12:24:00,
2013-05-25 08:29:00,47.7,44.3,29.98,NW,306,12.0,12.0,88,0.00,,OVC090,0.00,VWS V14.01,2013-05-25 12:29:00,
2013-05-25 08:34:00,48.1,44.1,29.98,NW,304,4.0,17.0,86,0.00,,OVC090,0.00,VWS V14.01,2013-05-25 12:34:00,
2013-05-25 08:39:00,48.5,44.8,29.98,NW,309,4.0,17.0,87,0.00,,OVC090,0.00,VWS V14.01,2013-05-25 12:39:00,
2013-05-25 08:44:00,48.9,44.6,29.99,WNW,284,5.0,17.0,85,0.00,,OVC090,0.00,VWS V14.01,2013-05-25 12:44:00,
2013-05-25 08:49:00,49.1,44.5,29.99,NW,304,6.0,17.0,84,0.00,,OVC090,0.00,VWS V14.01,2013-05-25 12:49:00,
2013-05-25 08:54:00,49.0,44.4,29.99,NNW,341,7.0,17.0,84,0.00,,OVC090,0.00,VWS V14.01,2013-05-25 12:54:00,
2013-05-25 08:59:00,49.0,44.1,29.99,NW,318,10.0,17.0,83,0.00,,OVC090,0.00,VWS V14.01,2013-05-25 12:59:00,
2013-05-25 09:04:00,49.1,44.2,29.99,West,278,9.0,16.0,83,0.00,,OVC060,0.00,VWS V14.01,2013-05-25 13:04:00,
2013-05-25 09:09:00,49.4,44.1,29.99,NNW,331,11.0,16.0,82,0.00,,OVC060,0.00,VWS V14.01,2013-05-25 13:09:00,
2013-05-25 09:14:00,49.8,44.2,29.99,NNW,330,14.0,16.0,81,0.00,,OVC060,0.00,VWS V14.01,2013-05-25 13:14:00,
2013-05-25 09:19:00,50.0,43.8,29.99,NNE,30,5.0,16.0,79,0.00,,OVC060,0.00,VWS V14.01,2013-05-25 13:19:00,
2013-05-25 09:24:00,50.1,44.2,29.99,WNW,303,6.0,16.0,80,0.00,,OVC060,0.00,VWS V14.01,2013-05-25 13:24:00,
2013-05-25 09:29:00,50.3,44.4,29.99,North,360,4.0,16.0,80,0.00,,OVC060,0.00,VWS V14.01,2013-05-25 13:29:00,
2013-05-25 09:34:00,50.5,43.6,29.99,West,273,6.0,15.0,77,0.00,,OVC060,0.00,VWS V14.01,2013-05-25 13:34:00,
2013-05-25 09:39:00,50.7,43.8,29.99,NW,312,8.0,15.0,77,0.00,,OVC060,0.00,VWS V14.01,2013-05-25 13:39:00,
2013-05-25 09:44:00,51.0,43.7,29.99,WNW,303,11.0,15.0,76,0.00,,OVC060,0.00,VWS V14.01,2013-05-25 13:44:00,
2013-05-25 09:49:00,51.3,43.7,29.99,West,261,4.0,15.0,75,0.00,,OVC060,0.00,VWS V14.01,2013-05-25 13:49:00,
2013-05-25 09:54:00,51.8,44.5,29.99,SW,229,3.0,15.0,76,0.00,,OVC060,0.00,VWS V14.01,2013-05-25 13:54:00,
2013-05-25 09:59:00,52.2,43.8,29.99,West,267,8.0,19.0,73,0.00,,OVC060,0.00,VWS V14.01,2013-05-25 13:59:00,
2013-05-25 10:04:00,52.4,43.7,29.99,West,267,6.0,17.0,72,0.00,,OVC065,0.00,VWS V14.01,2013-05-25 14:04:00,
2013-05-25 10:09:00,52.8,44.0,29.98,NW,314,6.0,17.0,72,0.00,,OVC065,0.00,VWS V14.01,2013-05-25 14:09:00,
2013-05-25 10:14:00,53.5,44.0,29.98,NW,309,5.0,17.0,70,0.00,,OVC065,0.00,VWS V14.01,2013-05-25 14:14:00,
2013-05-25 10:19:00,53.6,43.3,29.98,NW,315,20.0,20.0,68,0.00,,OVC065,0.00,VWS V14.01,2013-05-25 14:19:00,
2013-05-25 10:24:00,53.9,44.0,29.98,WNW,284,6.0,20.0,69,0.00,,OVC065,0.00,VWS V14.01,2013-05-25 14:24:00,
2013-05-25 10:29:00,54.7,44.4,29.98,West,272,7.0,20.0,68,0.00,,OVC065,0.00,VWS V14.01,2013-05-25 14:29:00,
2013-05-25 10:34:00,55.1,43.6,29.98,West,279,5.0,15.0,65,0.00,,OVC065,0.00,VWS V14.01,2013-05-25 14:34:00,
2013-05-25 10:39:00,55.1,44.0,29.98,NNW,331,9.0,15.0,66,0.00,,OVC065,0.00,VWS V14.01,2013-05-25 14:39:00,
2013-05-25 10:44:00,55.0,43.5,29.98,WNW,297,12.0,21.0,65,0.00,,OVC065,0.00,VWS V14.01,2013-05-25 14:44:00,
2013-05-25 10:49:00,54.7,43.6,29.98,NW,309,7.0,21.0,66,0.00,,OVC065,0.00,VWS V14.01,2013-05-25 14:49:00,
2013-05-25 10:54:00,54.6,43.1,29.98,West,262,8.0,21.0,65,0.00,,OVC065,0.00,VWS V14.01,2013-05-25 14:54:00,
2013-05-25 10:59:00,54.7,43.2,29.99,NW,306,6.0,21.0,65,0.00,,OVC065,0.00,VWS V14.01,2013-05-25 14:59:00,
2013-05-25 11:04:00,54.9,43.4,29.99,WNW,284,4.0,12.0,65,0.00,,SCT038,0.00,VWS V14.01,2013-05-25 15:04:00,
2013-05-25 11:09:00,55.5,43.9,29.99,West,261,3.0,14.0,65,0.00,,SCT038,0.00,VWS V14.01,2013-05-25 15:09:00,
2013-05-25 11:14:00,56.1,44.1,29.99,WNW,303,4.0,15.0,64,0.00,,SCT038,0.00,VWS V14.01,2013-05-25 15:14:00,
2013-05-25 11:19:00,56.2,43.8,29.99,NW,317,9.0,15.0,63,0.00,,SCT038,0.00,VWS V14.01,2013-05-25 15:19:00,
2013-05-25 11:24:00,56.1,43.3,29.98,WSW,237,6.0,15.0,62,0.00,,SCT038,0.00,VWS V14.01,2013-05-25 15:24:00,
2013-05-25 11:29:00,56.2,43.8,29.98,NW,304,5.0,7.0,63,0.00,,SCT038,0.00,VWS V14.01,2013-05-25 15:29:00,
2013-05-25 11:34:00,56.7,43.4,29.98,NW,314,10.0,14.0,61,0.00,,SCT038,0.00,VWS V14.01,2013-05-25 15:34:00,
2013-05-25 11:39:00,57.0,42.8,29.98,NW,309,11.0,18.0,59,0.00,,SCT038,0.00,VWS V14.01,2013-05-25 15:39:00,
2013-05-25 11:44:00,57.2,43.0,29.98,NNW,340,6.0,18.0,59,0.00,,SCT038,0.00,VWS V14.01,2013-05-25 15:44:00,
2013-05-25 11:49:00,57.3,42.7,29.99,NE,44,5.0,18.0,58,0.00,,SCT038,0.00,VWS V14.01,2013-05-25 15:49:00,
2013-05-25 11:55:00,57.2,42.1,29.98,West,274,10.0,18.0,57,0.00,,SCT038,0.00,VWS V14.01,2013-05-25 15:55:00,
2013-05-25 12:00:00,56.8,41.8,29.99,NNW,341,13.0,13.0,57,0.00,,SCT038,0.00,VWS V14.01,2013-05-25 16:00:00,
2013-05-25 12:05:00,56.5,41.5,29.99,WNW,300,5.0,20.0,57,0.00,,SCT100,0.00,VWS V14.01,2013-05-25 16:05:00,
2013-05-25 12:10:00,56.8,41.8,29.99,WNW,303,4.0,20.0,57,0.00,,SCT100,0.00,VWS V14.01,2013-05-25 16:10:00,
2013-05-25 12:15:00,57.2,41.7,29.98,NW,313,4.0,20.0,56,0.00,,SCT100,0.00,VWS V14.01,2013-05-25 16:15:00,
2013-05-25 12:20:00,57.2,41.2,29.99,North,355,9.0,20.0,55,0.00,,SCT100,0.00,VWS V14.01,2013-05-25 16:20:00,
2013-05-25 12:25:00,56.9,41.4,29.99,WNW,284,12.0,22.0,56,0.00,,SCT100,0.00,VWS V14.01,2013-05-25 16:25:00,
2013-05-25 12:30:00,56.7,41.7,29.99,West,273,15.0,15.0,57,0.00,,SCT100,0.00,VWS V14.01,2013-05-25 16:30:00,
2013-05-25 12:35:00,56.7,41.2,29.98,NNW,329,17.0,26.0,56,0.00,,SCT100,0.00,VWS V14.01,2013-05-25 16:35:00,
2013-05-25 12:40:00,57.0,41.5,29.98,NNW,327,10.0,26.0,56,0.00,,SCT100,0.00,VWS V14.01,2013-05-25 16:40:00,
2013-05-25 12:45:00,57.7,42.6,29.98,NW,309,8.0,26.0,57,0.00,,SCT100,0.00,VWS V14.01,2013-05-25 16:45:00,
2013-05-25 12:50:00,58.1,42.5,29.99,NNW,330,13.0,26.0,56,0.00,,SCT100,0.00,VWS V14.01,2013-05-25 16:50:00,
2013-05-25 12:55:00,58.1,41.6,29.98,WNW,295,6.0,26.0,54,0.00,,SCT100,0.00,VWS V14.01,2013-05-25 16:55:00,
2013-05-25 13:00:00,58.3,41.3,29.98,WSW,254,6.0,11.0,53,0.00,,-RA,0.00,VWS V14.01,2013-05-25 17:00:00,
2013-05-25 13:05:00,58.5,41.0,29.98,WSW,245,6.0,20.0,52,0.00,,-RA,0.00,VWS V14.01,2013-05-25 17:05:00,
2013-05-25 13:10:00,58.5,41.5,29.98,WNW,290,7.0,20.0,53,0.00,,-RA,0.00,VWS V14.01,2013-05-25 17:10:00,
2013-05-25 13:15:00,58.8,41.7,29.98,NW,311,10.0,20.0,53,0.00,,-RA,0.00,VWS V14.01,2013-05-25 17:15:00,
2013-05-25 13:20:00,58.6,41.5,29.98,NW,319,20.0,21.0,53,0.00,,-RA,0.00,VWS V14.01,2013-05-25 17:20:00,
2013-05-25 13:25:00,58.2,41.2,29.99,NW,323,6.0,21.0,53,0.00,,-RA,0.00,VWS V14.01,2013-05-25 17:25:00,
2013-05-25 13:30:00,57.8,41.8,29.99,NNE,32,1.0,6.0,55,0.00,,-RA,0.00,VWS V14.01,2013-05-25 17:30:00,
2013-05-25 13:35:00,57.5,41.5,29.98,NNW,341,5.0,17.0,55,0.00,,-RA,0.00,VWS V14.01,2013-05-25 17:35:00,
2013-05-25 13:40:00,57.3,40.8,29.99,WNW,303,9.0,19.0,54,0.00,,-RA,0.00,VWS V14.01,2013-05-25 17:40:00,
2013-05-25 13:45:00,57.3,40.8,29.99,WNW,295,7.0,20.0,54,0.00,,-RA,0.00,VWS V14.01,2013-05-25 17:45:00,
2013-05-25 13:50:00,57.3,40.8,29.98,NW,306,14.0,20.0,54,0.00,,-RA,0.00,VWS V14.01,2013-05-25 17:50:00,
2013-05-25 13:55:00,57.3,41.3,29.99,NNW,329,8.0,20.0,55,0.00,,-RA,0.00,VWS V14.01,2013-05-25 17:55:00,
2013-05-25 14:00:00,57.3,41.3,29.99,WNW,283,12.0,15.0,55,0.00,,OVC070,0.00,VWS V14.01,2013-05-25 18:00:00,
2013-05-25 14:05:00,57.3,39.8,29.99,WNW,292,9.0,22.0,52,0.00,,OVC070,0.00,VWS V14.01,2013-05-25 18:05:00,
2013-05-25 14:10:00,57.7,41.2,29.99,NW,317,6.0,22.0,54,0.00,,OVC070,0.00,VWS V14.01,2013-05-25 18:10:00,
2013-05-25 14:15:00,58.1,40.6,29.99,NNW,338,6.0,22.0,52,0.00,,OVC070,0.00,VWS V14.01,2013-05-25 18:15:00,
2013-05-25 14:20:00,58.2,40.2,29.99,NW,323,3.0,22.0,51,0.00,,OVC070,0.00,VWS V14.01,2013-05-25 18:20:00,
2013-05-25 14:25:00,58.6,40.5,29.98,WNW,292,4.0,22.0,51,0.00,,OVC070,0.00,VWS V14.01,2013-05-25 18:25:00,
2013-05-25 14:30:00,58.8,40.2,29.98,WNW,296,9.0,22.0,50,0.00,,OVC070,0.00,VWS V14.01,2013-05-25 18:30:00,
2013-05-25 14:35:00,58.7,41.1,29.99,NW,317,9.0,22.0,52,0.00,,OVC070,0.00,VWS V14.01,2013-05-25 18:35:00,
2013-05-25 14:41:00,58.5,41.5,29.98,North,9,12.0,22.0,53,0.00,,OVC070,0.00,VWS V14.01,2013-05-25 18:41:00,
2013-05-25 14:46:00,58.8,41.2,29.98,West,265,5.0,22.0,52,0.00,,OVC070,0.00,VWS V14.01,2013-05-25 18:46:00,
2013-05-25 14:51:00,59.5,40.9,29.98,NW,304,6.0,22.0,50,0.00,,OVC070,0.00,VWS V14.01,2013-05-25 18:51:00,
2013-05-25 14:56:00,59.9,41.2,29.98,NNW,340,15.0,22.0,50,0.00,,OVC070,0.00,VWS V14.01,2013-05-25 18:56:00,
2013-05-25 15:01:00,59.8,40.1,29.98,NW,308,17.0,20.0,48,0.00,,BKN080,0.00,VWS V14.01,2013-05-25 19:01:00,
2013-05-25 15:06:00,59.6,40.4,29.98,West,280,5.0,20.0,49,0.00,,BKN080,0.00,VWS V14.01,2013-05-25 19:06:00,
2013-05-25 15:11:00,60.1,40.9,29.98,WNW,298,5.0,20.0,49,0.00,,BKN080,0.00,VWS V14.01,2013-05-25 19:11:00,
2013-05-25 15:16:00,60.2,41.0,29.98,NNW,341,10.0,20.0,49,0.00,,BKN080,0.00,VWS V14.01,2013-05-25 19:16:00,
2013-05-25 15:21:00,60.4,40.6,29.98,West,261,5.0,21.0,48,0.00,,BKN080,0.00,VWS V14.01,2013-05-25 19:21:00,
2013-05-25 15:26:00,60.3,40.5,29.98,WNW,298,6.0,21.0,48,0.00,,BKN080,0.00,VWS V14.01,2013-05-25 19:26:00,
2013-05-25 15:31:00,60.1,40.4,29.98,NW,317,12.0,22.0,48,0.00,,BKN080,0.00,VWS V14.01,2013-05-25 19:31:00,
2013-05-25 15:36:00,60.0,40.3,29.97,NNW,332,16.0,23.0,48,0.00,,BKN080,0.00,VWS V14.01,2013-05-25 19:36:00,
2013-05-25 15:41:00,60.0,40.8,29.98,West,275,9.0,23.0,49,0.00,,BKN080,0.00,VWS V14.01,2013-05-25 19:41:00,
2013-05-25 15:46:00,60.0,39.7,29.98,WNW,282,9.0,23.0,47,0.00,,BKN080,0.00,VWS V14.01,2013-05-25 19:46:00,
2013-05-25 15:51:00,60.0,40.3,29.98,NW,314,18.0,25.0,48,0.00,,BKN080,0.00,VWS V14.01,2013-05-25 19:51:00,
2013-05-25 15:56:00,59.6,39.4,29.98,WNW,300,7.0,27.0,47,0.00,,BKN080,0.00,VWS V14.01,2013-05-25 19:56:00,
2013-05-25 16:01:00,59.9,40.2,29.98,NW,316,10.0,12.0,48,0.00,,BKN075,0.00,VWS V14.01,2013-05-25 20:01:00,
2013-05-25 16:06:00,60.7,39.8,29.98,NW,304,8.0,20.0,46,0.00,,BKN075,0.00,VWS V14.01,2013-05-25 20:06:00,
2013-05-25 16:11:00,60.8,39.9,29.97,West,279,7.0,20.0,46,0.00,,BKN075,0.00,VWS V14.01,2013-05-25 20:11:00,
2013-05-25 16:16:00,60.8,39.3,29.98,WNW,297,11.0,20.0,45,0.00,,BKN075,0.00,VWS V14.01,2013-05-25 20:16:00,
2013-05-25 16:21:00,61.0,39.5,29.98,West,278,4.0,27.0,45,0.00,,BKN075,0.00,VWS V14.01,2013-05-25 20:21:00,
2013-05-25 16:26:00,61.1,40.2,29.97,NW,325,9.0,27.0,46,0.00,,BKN075,0.00,VWS V14.01,2013-05-25 20:26:00,
2013-05-25 16:31:00,61.1,39.6,29.97,NW,314,12.0,15.0,45,0.00,,BKN075,0.00,VWS V14.01,2013-05-25 20:31:00,
2013-05-25 16:36:00,61.0,39.0,29.97,NW,319,11.0,19.0,44,0.00,,BKN075,0.00,VWS V14.01,2013-05-25 20:36:00,
2013-05-25 16:41:00,61.0,38.4,29.98,NW,304,14.0,25.0,43,0.00,,BKN075,0.00,VWS V14.01,2013-05-25 20:41:00,
2013-05-25 16:46:00,61.3,38.6,29.98,NNW,332,16.0,25.0,43,0.00,,BKN075,0.00,VWS V14.01,2013-05-25 20:46:00,
2013-05-25 16:51:00,61.4,39.3,29.98,WNW,298,8.0,25.0,44,0.00,,BKN075,0.00,VWS V14.01,2013-05-25 20:51:00,
2013-05-25 16:56:00,61.3,38.6,29.97,West,279,10.0,25.0,43,0.00,,BKN075,0.00,VWS V14.01,2013-05-25 20:56:00,
2013-05-25 17:01:00,61.2,38.0,29.98,NW,310,14.0,17.0,42,0.00,,OVC100,0.00,VWS V14.01,2013-05-25 21:01:00,
2013-05-25 17:06:00,61.2,39.1,29.98,SW,236,9.0,18.0,44,0.00,,OVC100,0.00,VWS V14.01,2013-05-25 21:06:00,
2013-05-25 17:11:00,61.5,38.2,29.98,NW,310,4.0,26.0,42,0.00,,OVC100,0.00,VWS V14.01,2013-05-25 21:11:00,
2013-05-25 17:16:00,61.4,38.1,29.98,NNW,327,12.0,26.0,42,0.00,,OVC100,0.00,VWS V14.01,2013-05-25 21:16:00,
2013-05-25 17:21:00,61.3,37.4,29.98,West,274,6.0,26.0,41,0.00,,OVC100,0.00,VWS V14.01,2013-05-25 21:21:00,
2013-05-25 17:26:00,61.3,38.6,29.98,West,279,5.0,26.0,43,0.00,,OVC100,0.00,VWS V14.01,2013-05-25 21:26:00,
2013-05-25 17:31:00,61.3,38.6,29.99,NNW,327,5.0,16.0,43,0.00,,OVC100,0.00,VWS V14.01,2013-05-25 21:31:00,
2013-05-25 17:36:00,61.2,38.5,30.00,NW,324,11.0,17.0,43,0.00,,OVC100,0.00,VWS V14.01,2013-05-25 21:36:00,
2013-05-25 17:41:00,60.8,37.6,30.00,WNW,292,10.0,19.0,42,0.00,,OVC100,0.00,VWS V14.01,2013-05-25 21:41:00,
2013-05-25 17:46:00,60.3,37.1,29.99,WNW,292,4.0,20.0,42,0.00,,OVC100,0.00,VWS V14.01,2013-05-25 21:46:00,
2013-05-25 17:51:00,60.2,37.0,29.99,NW,318,16.0,20.0,42,0.00,,OVC100,0.00,VWS V14.01,2013-05-25 21:51:00,
2013-05-25 17:56:00,59.6,37.1,30.00,WNW,303,6.0,20.0,43,0.00,,OVC100,0.00,VWS V14.01,2013-05-25 21:56:00,
2013-05-25 18:02:00,59.3,37.4,30.00,NW,318,6.0,11.0,44,0.00,,OVC070,0.00,VWS V14.01,2013-05-25 22:02:00,
2013-05-25 18:07:00,59.0,37.1,30.00,NW,307,8.0,12.0,44,0.00,,OVC070,0.00,VWS V14.01,2013-05-25 22:07:00,
2013-05-25 18:12:00,58.7,36.9,30.00,NW,320,4.0,12.0,44,0.00,,OVC070,0.00,VWS V14.01,2013-05-25 22:12:00,
2013-05-25 18:17:00,58.7,37.4,30.00,NW,312,6.0,12.0,45,0.00,,OVC070,0.00,VWS V14.01,2013-05-25 22:17:00,
2013-05-25 18:22:00,58.4,37.2,30.00,NNW,336,6.0,14.0,45,0.00,,OVC070,0.00,VWS V14.01,2013-05-25 22:22:00,
2013-05-25 18:27:00,58.2,37.0,30.00,NW,325,12.0,14.0,45,0.00,,OVC070,0.00,VWS V14.01,2013-05-25 22:27:00,
2013-05-25 18:32:00,57.9,36.1,30.01,NW,314,7.0,15.0,44,0.00,,OVC070,0.00,VWS V14.01,2013-05-25 22:32:00,
2013-05-25 18:37:00,57.9,36.7,30.01,NW,309,7.0,16.0,45,0.00,,OVC070,0.00,VWS V14.01,2013-05-25 22:37:00,
2013-05-25 18:42:00,57.9,36.7,30.01,NNW,344,4.0,16.0,45,0.00,,OVC070,0.00,VWS V14.01,2013-05-25 22:42:00,
2013-05-25 18:47:00,57.8,37.2,30.01,WNW,283,4.0,20.0,46,0.00,,OVC070,0.00,VWS V14.01,2013-05-25 22:47:00,
2013-05-25 18:52:00,57.6,37.0,30.02,NNW,339,17.0,20.0,46,0.00,,OVC070,0.00,VWS V14.01,2013-05-25 22:52:00,
2013-05-25 18:57:00,57.4,36.2,30.02,NW,322,9.0,20.0,45,0.00,,OVC070,0.00,VWS V14.01,2013-05-25 22:57:00,
2013-05-25 19:02:00,57.2,36.1,30.02,NNW,333,9.0,19.0,45,0.00,,OVC070,0.00,VWS V14.01,2013-05-25 23:02:00,
2013-05-25 19:07:00,57.1,36.0,30.02,NNW,344,8.0,19.0,45,0.00,,OVC070,0.00,VWS V14.01,2013-05-25 23:07:00,
2013-05-25 19:12:00,56.9,35.2,30.03,NW,312,7.0,22.0,44,0.00,,OVC070,0.00,VWS V14.01,2013-05-25 23:12:00,
2013-05-25 19:17:00,56.8,36.3,30.03,NW,320,7.0,22.0,46,0.00,,OVC070,0.00,VWS V14.01,2013-05-25 23:17:00,
2013-05-25 19:22:00,56.7,35.6,30.03,NNW,327,9.0,22.0,45,0.00,,OVC070,0.00,VWS V14.01,2013-05-25 23:22:00,
2013-05-25 19:27:00,56.6,36.1,30.03,West,259,7.0,22.0,46,0.00,,OVC070,0.00,VWS V14.01,2013-05-25 23:27:00,
2013-05-25 19:32:00,56.6,35.5,30.04,West,271,5.0,20.0,45,0.00,,OVC070,0.00,VWS V14.01,2013-05-25 23:32:00,
2013-05-25 19:37:00,56.4,35.9,30.04,North,355,7.0,20.0,46,0.00,,OVC070,0.00,VWS V14.01,2013-05-25 23:37:00,
2013-05-25 19:42:00,56.2,35.7,30.04,NNW,328,5.0,20.0,46,0.00,,OVC070,0.00,VWS V14.01,2013-05-25 23:42:00,
2013-05-25 19:47:00,56.1,35.6,30.04,WNW,284,8.0,20.0,46,0.00,,OVC070,0.00,VWS V14.01,2013-05-25 23:47:00,
2013-05-25 19:52:00,56.1,35.6,30.04,WNW,286,8.0,20.0,46,0.00,,OVC070,0.00,VWS V14.01,2013-05-25 23:52:00,
2013-05-25 19:57:00,56.1,36.2,30.04,NW,316,6.0,20.0,47,0.00,,OVC070,0.00,VWS V14.01,2013-05-25 23:57:00,
2013-05-25 20:02:00,56.0,36.1,30.04,WNW,302,5.0,6.0,47,0.00,,OVC080,0.00,VWS V14.01,2013-05-26 00:02:00,
2013-05-25 20:07:00,55.9,36.5,30.04,NW,307,5.0,9.0,48,0.00,,OVC080,0.00,VWS V14.01,2013-05-26 00:07:00,
2013-05-25 20:12:00,55.9,36.0,30.04,WNW,284,4.0,11.0,47,0.00,,OVC080,0.00,VWS V14.01,2013-05-26 00:12:00,
2013-05-25 20:17:00,55.9,36.5,30.04,WNW,303,3.0,11.0,48,0.00,,OVC080,0.00,VWS V14.01,2013-05-26 00:17:00,
2013-05-25 20:22:00,55.8,36.4,30.04,WNW,300,4.0,11.0,48,0.00,,OVC080,0.00,VWS V14.01,2013-05-26 00:22:00,
2013-05-25 20:27:00,55.7,36.3,30.04,NNW,331,5.0,11.0,48,0.00,,OVC080,0.00,VWS V14.01,2013-05-26 00:27:00,
2013-05-25 20:32:00,55.5,36.7,30.05,NW,312,2.0,6.0,49,0.00,,OVC080,0.00,VWS V14.01,2013-05-26 00:32:00,
2013-05-25 20:37:00,55.5,36.2,30.05,NW,319,7.0,11.0,48,0.00,,OVC080,0.00,VWS V14.01,2013-05-26 00:37:00,
2013-05-25 20:42:00,55.4,36.6,30.05,WNW,296,6.0,11.0,49,0.00,,OVC080,0.00,VWS V14.01,2013-05-26 00:42:00,
2013-05-25 20:47:00,55.4,36.6,30.04,NW,325,2.0,11.0,49,0.00,,OVC080,0.00,VWS V14.01,2013-05-26 00:47:00,
2013-05-25 20:52:00,55.3,37.0,30.05,NW,321,2.0,11.0,50,0.00,,OVC080,0.00,VWS V14.01,2013-05-26 00:52:00,
2013-05-25 20:58:00,55.4,36.6,30.05,NW,314,4.0,11.0,49,0.00,,OVC080,0.00,VWS V14.01,2013-05-26 00:58:00,
2013-05-25 21:03:00,55.4,36.1,30.05,NNW,333,7.0,10.0,48,0.00,,OVC095,0.00,VWS V14.01,2013-05-26 01:03:00,
2013-05-25 21:08:00,55.3,36.0,30.05,NW,306,4.0,11.0,48,0.00,,OVC095,0.00,VWS V14.01,2013-05-26 01:08:00,
2013-05-25 21:13:00,55.3,35.4,30.05,WNW,289,7.0,11.0,47,0.00,,OVC095,0.00,VWS V14.01,2013-05-26 01:13:00,
2013-05-25 21:18:00,55.3,35.4,30.05,WNW,302,2.0,11.0,47,0.00,,OVC095,0.00,VWS V14.01,2013-05-26 01:18:00,
2013-05-25 21:23:00,55.4,35.5,30.05,NNW,345,5.0,12.0,47,0.00,,OVC095,0.00,VWS V14.01,2013-05-26 01:23:00,
2013-05-25 21:28:00,55.3,34.9,30.05,NW,323,4.0,16.0,46,0.00,,OVC095,0.00,VWS V14.01,2013-05-26 01:28:00,
2013-05-25 21:33:00,55.1,34.7,30.05,West,276,6.0,10.0,46,0.00,,OVC095,0.00,VWS V14.01,2013-05-26 01:33:00,
2013-05-25 21:38:00,55.1,35.2,30.06,WNW,302,4.0,11.0,47,0.00,,OVC095,0.00,VWS V14.01,2013-05-26 01:38:00,
2013-05-25 21:43:00,55.2,35.3,30.05,NW,306,5.0,13.0,47,0.00,,OVC095,0.00,VWS V14.01,2013-05-26 01:43:00,
2013-05-25 21:48:00,55.1,35.2,30.05,NW,315,10.0,13.0,47,0.00,,OVC095,0.00,VWS V14.01,2013-05-26 01:48:00,
2013-05-25 21:53:00,54.8,35.0,30.05,WNW,301,7.0,13.0,47,0.00,,OVC095,0.00,VWS V14.01,2013-05-26 01:53:00,
2013-05-25 21:58:00,54.8,35.0,30.05,WNW,294,3.0,13.0,47,0.00,,OVC095,0.00,VWS V14.01,2013-05-26 01:58:00,
2013-05-25 22:03:00,54.6,35.3,30.06,NW,315,2.0,8.0,48,0.00,,OVC100,0.00,VWS V14.01,2013-05-26 02:03:00,
2013-05-25 22:08:00,54.4,35.1,30.06,WNW,285,3.0,9.0,48,0.00,,OVC100,0.00,VWS V14.01,2013-05-26 02:08:00,
2013-05-25 22:13:00,54.1,35.4,30.06,WNW,291,4.0,10.0,49,0.00,,OVC100,0.00,VWS V14.01,2013-05-26 02:13:00,
2013-05-25 22:18:00,53.9,35.7,30.06,NNW,333,0.0,11.0,50,0.00,,OVC100,0.00,VWS V14.01,2013-05-26 02:18:00,
2013-05-25 22:23:00,53.7,35.5,30.05,NW,310,2.0,11.0,50,0.00,,OVC100,0.00,VWS V14.01,2013-05-26 02:23:00,
2013-05-25 22:28:00,53.5,35.3,30.05,NW,321,0.0,11.0,50,0.00,,OVC100,0.00,VWS V14.01,2013-05-26 02:28:00,
2013-05-25 22:33:00,53.3,35.7,30.05,WNW,303,1.0,5.0,51,0.00,,OVC100,0.00,VWS V14.01,2013-05-26 02:33:00,
2013-05-25 22:38:00,53.0,35.9,30.05,NNW,341,0.0,5.0,52,0.00,,OVC100,0.00,VWS V14.01,2013-05-26 02:38:00,
2013-05-25 22:43:00,52.7,36.1,30.05,NW,312,0.0,5.0,53,0.00,,OVC100,0.00,VWS V14.01,2013-05-26 02:43:00,
2013-05-25 22:48:00,52.4,35.8,30.05,NW,306,0.0,5.0,53,0.00,,OVC100,0.00,VWS V14.01,2013-05-26 02:48:00,
2013-05-25 22:53:00,52.1,36.0,30.05,WNW,302,0.0,5.0,54,0.00,,OVC100,0.00,VWS V14.01,2013-05-26 02:53:00,
2013-05-25 22:58:00,51.9,36.3,30.05,WNW,300,1.0,5.0,55,0.00,,OVC100,0.00,VWS V14.01,2013-05-26 02:58:00,
2013-05-25 23:03:00,51.7,35.6,30.05,WNW,296,1.0,10.0,54,0.00,,OVC100,0.00,VWS V14.01,2013-05-26 03:03:00,
2013-05-25 23:08:00,51.7,35.6,30.05,WNW,292,2.0,10.0,54,0.00,,OVC100,0.00,VWS V14.01,2013-05-26 03:08:00,
2013-05-25 23:13:00,51.7,35.6,30.05,NW,311,2.0,10.0,54,0.00,,OVC100,0.00,VWS V14.01,2013-05-26 03:13:00,
2013-05-25 23:18:00,51.8,35.7,30.05,WNW,300,1.0,10.0,54,0.00,,OVC100,0.00,VWS V14.01,2013-05-26 03:18:00,
2013-05-25 23:23:00,51.7,35.6,30.04,WNW,296,1.0,10.0,54,0.00,,OVC100,0.00,VWS V14.01,2013-05-26 03:23:00,
2013-05-25 23:28:00,51.6,35.5,30.04,WNW,300,1.0,10.0,54,0.00,,OVC100,0.00,VWS V14.01,2013-05-26 03:28:00,
2013-05-25 23:33:00,51.5,35.9,30.04,WSW,248,1.0,3.0,55,0.00,,OVC100,0.00,VWS V14.01,2013-05-26 03:33:00,
2013-05-25 23:38:00,51.4,36.2,30.04,NNW,344,2.0,4.0,56,0.00,,OVC100,0.00,VWS V14.01,2013-05-26 03:38:00,
2013-05-25 23:43:00,51.2,36.1,30.04,NNW,347,1.0,5.0,56,0.00,,OVC100,0.00,VWS V14.01,2013-05-26 03:43:00,
2013-05-25 23:48:00,51.1,36.0,30.04,WNW,299,2.0,5.0,56,0.00,,OVC100,0.00,VWS V14.01,2013-05-26 03:48:00,
2013-05-25 23:53:00,51.1,36.0,30.04,West,277,1.0,5.0,56,0.00,,OVC100,0.00,VWS V14.01,2013-05-26 03:53:00,
2013-05-25 23:58:00,51.0,36.3,30.04,WNW,294,1.0,5.0,57,0.00,,OVC100,0.00,VWS V14.01,2013-05-26 03:58:00,